Location: Unspecified
(35.7250°N, 0.0000°E)
Time: 02:58:22
(UTC+00:00)

Tiros 1 - Pass Details

Date: 27 June 2019
Orbit: 630 x 664 km, 48.4° (Epoch: 22 July)

Event Time Altitude Azimuth Distance (km) Brightness Sun altitude
Rises 20:50:31 0° 238° (WSW) 2,967 10.7 -15.4°
Reaches altitude 10° 20:52:52 10° 241° (WSW) 2,053 9.9 -15.8°
Maximum altitude 20:57:36 71° 325° (NW) 685 7.4 -16.5°
Drops below altitude 10° 21:02:18 10° 50° (NE) 2,039 9.7 -17.1°
Sets 21:04:38 0° 53° (NE) 2,945 10.5 -17.4°
